Regional Weather Roundup
Issued by NWS Northern Indiana

Home | Current Version | Previous Version | Text Only | Print | Product List | Glossary Off
Versions: 1 2 3 4 5 6 7 8 9 10 11 12 13 14 15 16 17 18 19 20 21 22 23 24 25 26 27 28 29 30 31 32 33 34 35 36 37 38 39 40 41 42 43 44 45 46 47 48 49 50

000
ASUS43 KIWX 250100
RWRIWX

KIWX WEATHER ROUNDUP
NATIONAL WEATHER SERVICE NORTHERN INDIANA
900 PM EDT SUN MAY 24 2015

NOTE: "FAIR" INDICATES FEW OR NO CLOUDS BELOW 12,000 FEET WITH NO
SIGNIFICANT WEATHER AND/OR OBSTRUCTIONS TO VISIBILITY.

* THESE STATIONS ARE NOT UNDER NWS QUALITY CONTROL. THEY ALSO MAY NOT
  REPORT WEATHER SUCH AS PRECIPITATION OR FOG.

INZ001>027-250200-
NORTHERN INDIANA

CITY           SKY/WX    TMP DP  RH WIND       PRES   REMARKS
GARY*          MOCLDY    68  63  83 S10       29.95F
SOUTH BEND     MOCLDY    79  53  40 S12       29.99S
GOSHEN         MOCLDY    76  55  48 S10       30.01F
WARSAW*        PTCLDY    77  54  44 S6        30.02F
ANGOLA*        MOCLDY    75  55  50 S8        30.05R
FORT WAYNE     MOCLDY    76  54  46 S12       30.06S
PERU/GRISSOM   PTCLDY    77  56  49 S10       30.02R

$$
INZ028>050-250200-
CENTRAL INDIANA

CITY           SKY/WX    TMP DP  RH WIND       PRES   REMARKS
LAFAYETTE      CLEAR     77  59  53 S10       29.99F
KOKOMO*        CLEAR     77  55  47 S13       30.03S
MUNCIE*        PTCLDY    79  53  40 S8        30.06F
INDIANAPOLIS   MOCLDY    78  56  46 S12       30.03S

$$
MIZ043>046-050>051-056>058-064>065-071>073-077>080-250200-
SOUTHWEST LOWER MICHIGAN

CITY           SKY/WX    TMP DP  RH WIND       PRES   REMARKS
BATTLE CREEK   CLOUDY    74  56  53 E8        30.04S
BENTON HARBOR  CLOUDY    73  58  59 SE6       29.97F
COLDWATER*     MOCLDY    74  52  46 SE3       30.04S
HILLSDALE*     MOCLDY    76  53  45 SE6       30.07S
HOLLAND        CLOUDY    69  56  62 E6        30.01F
GRAND RAPIDS   LGT RAIN  68  56  65 NE8       30.03F
KALAMAZOO      CLOUDY    73  57  57 E3        30.02S
STURGIS*       MOCLDY    77  54  44 S8        30.03S
THREE RIVERS*  FAIR      77  52  41 S10       30.02S

$$
OHZ001>008-015>018-024>025-250200-
NORTHWEST OHIO

CITY           SKY/WX    TMP DP  RH WIND       PRES   REMARKS
DEFIANCE       PTCLDY    78  52  40 S7        30.07S
FINDLAY        CLEAR     73  51  46 S9        30.09S
TOLEDO EXPRESS MOCLDY    75  51  43 SE3       30.08S
TOLEDO METCALF MOCLDY    74  50  42 S6        30.08F
LIMA           CLEAR     75  50  41 S9        30.10S

$$
AND FOR LAKE MICHIGAN COASTAL AND OPEN LAKE BUOY OBSERVATIONS

STATION/POSITION TEMP    WIND        PRES    VSBY  WAVE
                 AIR SEA DIR/SP/G                  HT/PER
                 (F)     (DEG/KT/KT) (MB)    (MI)  (FT/S)
CALUMET HARBOR    61      50/  3/  5   N/A
MICHIGAN CITY     81     150/ 12/ 18   N/A
BURNS HARBOR      79     180/ 12/ 17 1014.6S
SAINT JOSEPH      71      CALM  /  3 1015.9S
SOUTH LAKE BUOY   48 38   40/  6/  8 1015.7F         1
4 MI NW BRIDGMAN  68 56  180/  6/ 10   N/A           1
MICHIGAN CITY     62 55   70/  4/  6   N/A           1

$$
&&


USA.gov is the U.S. government's official web portal to all federal, state and local government web resources and services.